TimeEST,TemperatureF,Dew PointF,Humidity,Sea Level PressureIn,VisibilityMPH,Wind Direction,Wind SpeedMPH,Gust SpeedMPH,PrecipitationIn,Events,Conditions,WindDirDegrees,DateUTC
12:56 AM,39.0,21.9,50,30.35,10.0,North,4.6,-,N/A,,Partly Cloudy,360,2013-02-02 05:56:00
1:56 AM,37.0,23.0,57,30.35,10.0,NNE,3.5,-,N/A,,Partly Cloudy,20,2013-02-02 06:56:00
2:56 AM,32.0,24.1,73,30.34,10.0,Calm,Calm,-,N/A,,Partly Cloudy,0,2013-02-02 07:56:00
3:56 AM,33.1,21.9,64,30.34,10.0,Calm,Calm,-,N/A,,Clear,0,2013-02-02 08:56:00
4:56 AM,33.1,21.0,61,30.34,10.0,North,5.8,-,N/A,,Clear,350,2013-02-02 09:56:00
5:56 AM,32.0,19.0,59,30.35,10.0,Calm,Calm,-,N/A,,Clear,0,2013-02-02 10:56:00
6:56 AM,30.9,19.9,64,30.36,10.0,Calm,Calm,-,N/A,,Partly Cloudy,0,2013-02-02 11:56:00
7:56 AM,33.1,19.9,59,30.37,10.0,Calm,Calm,-,N/A,,Clear,0,2013-02-02 12:56:00
8:56 AM,39.0,21.9,50,30.36,10.0,Calm,Calm,-,N/A,,Clear,0,2013-02-02 13:56:00
9:56 AM,46.9,28.0,48,30.36,10.0,Calm,Calm,-,N/A,,Clear,0,2013-02-02 14:56:00
10:56 AM,53.6,30.2,41,30.35,10.0,Calm,Calm,-,N/A,,Partly Cloudy,0,2013-02-02 15:56:00
11:56 AM,57.2,23.0,27,30.32,10.0,Calm,Calm,-,N/A,,Partly Cloudy,0,2013-02-02 16:56:00
12:56 PM,60.8,26.6,27,30.28,10.0,Variable,4.6,-,N/A,,Partly Cloudy,0,2013-02-02 17:56:00
1:56 PM,62.1,27.0,26,30.23,10.0,Variable,3.5,-,N/A,,Partly Cloudy,0,2013-02-02 18:56:00
2:56 PM,62.6,26.6,26,30.21,10.0,SW,4.6,-,N/A,,Partly Cloudy,230,2013-02-02 19:56:00
3:56 PM,64.0,26.1,24,30.19,10.0,WSW,4.6,-,N/A,,Partly Cloudy,240,2013-02-02 20:56:00
4:56 PM,64.4,26.6,24,30.18,10.0,West,6.9,-,N/A,,Partly Cloudy,260,2013-02-02 21:56:00
5:56 PM,59.0,28.4,31,30.17,10.0,Calm,Calm,-,N/A,,Scattered Clouds,0,2013-02-02 22:56:00
6:56 PM,46.4,35.6,66,30.18,10.0,Calm,Calm,-,N/A,,Partly Cloudy,0,2013-02-02 23:56:00
7:56 PM,46.9,33.1,59,30.18,10.0,Calm,Calm,-,N/A,,Clear,0,2013-02-03 00:56:00
8:56 PM,43.0,33.1,68,30.19,10.0,Calm,Calm,-,N/A,,Clear,0,2013-02-03 01:56:00
9:56 PM,39.9,33.1,77,30.19,10.0,Calm,Calm,-,N/A,,Clear,0,2013-02-03 02:56:00
10:56 PM,39.9,33.1,77,30.17,10.0,Calm,Calm,-,N/A,,Clear,0,2013-02-03 03:56:00
11:56 PM,37.0,32.0,82,30.17,10.0,Calm,Calm,-,N/A,,Clear,0,2013-02-03 04:56:00